Flag for Paraguay Weather past 2 weeks in Asuncion, Paraguay

Now
77 °F

Thunderstorms. Mostly cloudy.


Feels Like: 78 °F
Forecast: 70 / 81 °F
Wind: 10 mph from South

Location: Asuncion / Aeropuerto

Current Time: Sep 30, 2014 at 8:32:47 PM

Latest Report: Sep 30, 2014 at 8:00 PM


Visibility: N/A

Pressure: 29.80 "Hg

Humidity: 83%

Dew point: 72 °F

Location of AsuncionLocation

Historic Weather in Asuncion — Graph

°F

Asuncion temperature yesterday

Maximum temperature yesterday: 93 °F (at 3:00 PM)
Minimum temperature yesterday: 77 °F (at 6:00 AM)
Average temperature yesterday: 85 °F

Past Weeks' High & Low Weather Summary

 TemperatureHumidityPressure
High95 °F (Sep 30, 2:00 PM)100% (Sep 18, 7:30 AM)30.15 "Hg (Sep 18, 7:30 AM)
Low39 °F (Sep 24, 1:20 AM)30% (Sep 21, 3:00 PM)29.59 "Hg (Sep 30, 4:00 PM)
Average74 °F74%29.85 "Hg
* Reported Sep 15 7:00 PM — Sep 30 7:00 PM, Asuncion, Weather by CustomWeather, © 2014

Note: Actual official high and low records may vary slightly from our data, if they occured in-between our weather recording intervals... More about our weather records

Advertising

Asuncion weather history for previous 24 hours

 ConditionsComfort  
Time TempWeatherWind HumidityBarometerVisibility
7:00 PM
Sep 30
75 °FThunderstorms. Passing clouds.10 mph89%29.77 "HgN/A
6:00 PM77 °FThunderstorms. Passing clouds.N/A83%29.74 "HgN/A
5:00 PM77 °FThunderstorms. Mostly cloudy.17 mph89%29.65 "HgN/A
4:05 PM90 °FThunderstorms. Cloudy.10 mph67%29.59 "Hg5 mi
4:00 PM91 °FThunderstorms. Partly sunny.10 mph59%29.59 "HgN/A
3:00 PM95 °FPartly sunny.10 mph53%29.62 "HgN/A
2:00 PM95 °FBroken clouds.7 mph50%29.65 "HgN/A
1:00 PM93 °FBroken clouds.7 mph56%29.68 "HgN/A
12:00 PM93 °FScattered clouds.8 mph56%29.71 "HgN/A
11:00 AM90 °FSunny.14 mph63%29.74 "Hg10 mi
10:00 AM86 °FSunny.12 mph66%29.77 "Hg10 mi
9:30 AM88 °FSunny.8 mph62%29.77 "Hg10 mi
9:00 AM86 °FSunny.8 mph66%29.77 "Hg10 mi
8:30 AM84 °FSunny.10 mph70%29.74 "Hg10 mi
8:00 AM81 °FSunny.7 mph74%29.74 "Hg10 mi
7:30 AM79 °FSunny.10 mph79%29.74 "Hg10 mi
7:00 AM79 °FSunny.9 mph74%29.74 "Hg10 mi
6:00 AM75 °FPassing clouds.13 mph83%29.71 "HgN/A
5:00 AM75 °FSunny.14 mph78%29.71 "Hg10 mi
4:00 AM75 °FClear.13 mph78%29.68 "Hg10 mi
3:00 AM75 °FClear.13 mph78%29.71 "Hg10 mi
2:00 AM77 °FClear.13 mph79%29.71 "Hg10 mi
1:00 AM77 °FPassing clouds.13 mph79%29.71 "HgN/A
12:00 AM77 °FPassing clouds.10 mph79%29.71 "HgN/A
11:00 PM
Sep 29
79 °FPassing clouds.10 mph79%29.71 "HgN/A
10:00 PM81 °FPassing clouds.6 mph74%29.71 "HgN/A
9:00 PM81 °FPassing clouds.6 mph74%29.68 "HgN/A
8:00 PM84 °FPassing clouds.13 mph74%29.65 "HgN/A
Weather by CustomWeather, © 2014

See weather overviewHow to use our weather pages